Waseca, MN

8:10 PM CDT on October 20, 2017 (GMT -0500)
Waseca Municipal

Weather History for KACQ - April, 2013

Change the Weather History Date:

Thursday, April 18, 2013

  Actual Average Record
Temperature  
Mean Temperature 32 °F -  
Max Temperature 33 °F 58 °F 89 °F (2002)
Min Temperature 32 °F 36 °F 18 °F (1983)
Degree Days  
Heating Degree Days 32    
Moisture  
Dew Point 31 °F    
Average Humidity 93    
Maximum Humidity 100    
Minimum Humidity 93    
Precipitation  
Precipitation 0.17 in - - ()
Sea Level Pressure  
Sea Level Pressure 29.65 in    
Wind  
Wind Speed 16 mph (NNW)    
Max Wind Speed 23 mph    
Max Gust Speed 30 mph    
Visibility 3 miles    
Events Rain , Snow    
Averages and records for this station are not official NWS values.
T = Trace of Precipitation, MM = Missing Value Source: NWS Daily Summary

Daily Weather History Graph

Daily Weather History Graph

Search for Another Location

Airport or City:

Trip Planner

Search our weather history database for the weather conditions in past years. The results will help you decide how hot, cold, wet, or windy it might be!

Date:

Astronomy

Apr. 18, 2013 Rise Set
Actual Time 6:25 AM CDT 8:02 PM CDT
Civil Twilight 5:55 AM CDT 8:32 PM CDT
Nautical Twilight 5:18 AM CDT 9:09 PM CDT
Astronomical Twilight 4:38 AM CDT 9:49 PM CDT
Moon 12:35 PM CDT (4/18) 2:20 AM CDT (4/18)
Length of Visible Light 14h 37m
Length of Day
13h 36m
First Quarter, 52% of the Moon is Illuminated
Apr 18
First Quarter
Apr 25
Full
May 2
Last Quarter
May 9
New
May 17
First Quarter

Hourly Weather History & Observations

Time (CDT) Temp. Windchill Dew Point Humidity Pressure Visibility Wind Dir Wind Speed Gust Speed Precip Events Conditions
12:17 AM 33.8 °F 24.3 °F 32.0 °F 93% 29.88 in 4.0 mi North 13.8 mph - N/A Rain Light Rain
12:36 AM 33.8 °F 23.9 °F 32.0 °F 93% 29.87 in 3.0 mi North 15.0 mph - N/A Rain Light Rain
12:56 AM 33.8 °F 23.9 °F 32.0 °F 93% 29.84 in 4.0 mi North 15.0 mph - 0.01 in Rain Light Rain
1:17 AM 33.8 °F 22.8 °F 32.0 °F 93% 29.83 in 5.0 mi North 18.4 mph - N/A Rain Light Rain
1:36 AM 33.8 °F 23.2 °F 32.0 °F 93% 29.81 in 7.0 mi North 17.3 mph 24.2 mph N/A   Overcast
1:56 AM 33.8 °F 23.2 °F 32.0 °F 93% 29.80 in 5.0 mi North 17.3 mph 23.0 mph N/A Rain Light Rain
2:17 AM 33.8 °F 22.8 °F 32.0 °F 93% 29.79 in 4.0 mi North 18.4 mph 25.3 mph N/A   Overcast
2:36 AM 33.8 °F 22.8 °F 32.0 °F 93% 29.78 in 4.0 mi NNE 18.4 mph - N/A   Overcast
2:56 AM 33.8 °F 23.9 °F 32.0 °F 93% 29.80 in 4.0 mi NNE 15.0 mph - N/A Snow Light Snow
3:17 AM 33.8 °F 24.8 °F 32.0 °F 93% 29.82 in 3.0 mi North 12.7 mph - N/A   Light Drizzle
3:36 AM 33.8 °F 24.8 °F 32.0 °F 93% 29.80 in 2.5 mi NNE 12.7 mph - N/A   Overcast
3:56 AM 32.0 °F 23.0 °F 32.0 °F 100% 29.79 in 4.0 mi North 11.5 mph - N/A Rain Rain
4:17 AM 32.0 °F 23.0 °F 32.0 °F 100% 29.78 in 5.0 mi NNW 11.5 mph - N/A   Light Drizzle
4:36 AM 32.0 °F 23.0 °F 32.0 °F 100% 29.80 in 4.0 mi NNW 11.5 mph - N/A   Overcast
4:56 AM 32.0 °F 21.6 °F 32.0 °F 100% 29.80 in 3.0 mi NNW 15.0 mph - N/A   Overcast
5:17 AM 32.0 °F 21.6 °F 30.2 °F 93% 29.78 in 3.0 mi North 15.0 mph - N/A   Overcast
5:36 AM 32.0 °F 21.6 °F 30.2 °F 93% 29.77 in 4.0 mi North 15.0 mph - N/A   Overcast
5:56 AM 32.0 °F 22.1 °F 30.2 °F 93% 29.76 in 5.0 mi North 13.8 mph 21.9 mph N/A   Overcast
6:17 AM 32.0 °F 22.1 °F 30.2 °F 93% 29.74 in 10.0 mi North 13.8 mph - N/A   Overcast
6:36 AM 32.0 °F 22.1 °F 30.2 °F 93% 29.73 in 10.0 mi North 13.8 mph - N/A   Overcast
6:56 AM 32.0 °F 20.5 °F 30.2 °F 93% 29.70 in 10.0 mi North 18.4 mph 21.9 mph N/A   Overcast
7:17 AM 32.0 °F 20.8 °F 30.2 °F 93% 29.72 in 10.0 mi North 17.3 mph 23.0 mph N/A   Overcast
7:36 AM 32.0 °F 21.6 °F 30.2 °F 93% 29.72 in 10.0 mi North 15.0 mph - N/A   Overcast
7:56 AM 32.0 °F 20.5 °F 30.2 °F 93% 29.70 in 10.0 mi North 18.4 mph - N/A   Overcast
8:17 AM 32.0 °F 19.8 °F 30.2 °F 93% 29.68 in 10.0 mi North 20.7 mph 25.3 mph N/A   Overcast
8:36 AM 32.0 °F 20.8 °F 30.2 °F 93% 29.65 in 10.0 mi North 17.3 mph 28.8 mph N/A   Overcast
8:56 AM 32.0 °F 20.8 °F 30.2 °F 93% 29.66 in 10.0 mi North 17.3 mph 25.3 mph N/A   Overcast
9:17 AM 32.0 °F 21.2 °F 30.2 °F 93% 29.68 in 10.0 mi North 16.1 mph 19.6 mph N/A   Overcast
9:36 AM 32.0 °F 21.2 °F 30.2 °F 93% 29.67 in 5.0 mi North 16.1 mph - N/A   Overcast
9:56 AM 32.0 °F 23.0 °F 30.2 °F 93% 29.68 in 3.0 mi North 11.5 mph - N/A   Overcast
10:17 AM 32.0 °F 21.6 °F 30.2 °F 93% 29.65 in 3.0 mi North 15.0 mph 18.4 mph 0.01 in   Overcast
10:36 AM 32.0 °F 21.6 °F 30.2 °F 93% 29.63 in 2.5 mi North 15.0 mph - 0.01 in Snow Light Snow
10:57 AM 32.0 °F 22.5 °F 30.2 °F 93% 29.62 in 3.0 mi North 12.7 mph - 0.01 in   Overcast
11:16 AM 32.0 °F 22.5 °F 30.2 °F 93% 29.62 in 1.5 mi North 12.7 mph 17.3 mph 0.01 in Snow Light Snow
11:36 AM 32.0 °F 22.1 °F 30.2 °F 93% 29.63 in 1.5 mi NNW 13.8 mph - 0.04 in Snow Light Snow
11:57 AM 32.0 °F 22.5 °F 30.2 °F 93% 29.62 in 2.5 mi NNW 12.7 mph - 0.06 in   Overcast
12:16 PM 32.0 °F 23.6 °F 30.2 °F 93% 29.64 in 1.2 mi NNW 10.4 mph - N/A Snow Light Snow
12:36 PM 32.0 °F 22.1 °F 30.2 °F 93% 29.61 in 1.2 mi North 13.8 mph - N/A Snow Light Snow
12:57 PM 32.0 °F 22.5 °F 30.2 °F 93% 29.60 in 1.0 mi NNW 12.7 mph - N/A Snow Light Snow
1:16 PM 32.0 °F 23.6 °F 30.2 °F 93% 29.58 in 0.5 mi NNW 10.4 mph 20.7 mph N/A Snow Light Snow
1:36 PM 32.0 °F 20.8 °F 30.2 °F 93% 29.56 in 0.8 mi NNW 17.3 mph - N/A Snow Light Snow
1:57 PM 32.0 °F 22.1 °F 30.2 °F 93% 29.58 in 0.5 mi NW 13.8 mph - N/A Snow Light Snow
2:16 PM 32.0 °F 21.2 °F 30.2 °F 93% 29.56 in 0.8 mi NNW 16.1 mph - 0.01 in Snow Light Snow
2:36 PM 32.0 °F 21.6 °F 30.2 °F 93% 29.57 in 0.5 mi NNW 15.0 mph - 0.01 in Snow Snow
2:57 PM 32.0 °F 21.2 °F 30.2 °F 93% 29.57 in 0.5 mi NNW 16.1 mph 21.9 mph 0.02 in Snow Snow
3:36 PM 32.0 °F 21.6 °F 30.2 °F 93% 29.55 in 0.5 mi NNW 15.0 mph - 0.02 in Snow Light Snow
3:57 PM 32.0 °F 21.6 °F 30.2 °F 93% 29.54 in 0.8 mi NNW 15.0 mph - 0.03 in Snow Light Snow
4:16 PM 32.0 °F 21.2 °F 30.2 °F 93% 29.53 in 0.8 mi NNW 16.1 mph - N/A Snow Light Snow
4:37 PM 32.0 °F 21.6 °F 30.2 °F 93% 29.53 in 1.0 mi NNW 15.0 mph - 0.01 in Snow Light Snow
4:57 PM 32.0 °F 21.2 °F 30.2 °F 93% 29.52 in 0.8 mi NNW 16.1 mph - 0.02 in Snow Light Snow
5:16 PM 32.0 °F 22.1 °F 30.2 °F 93% 29.52 in 0.5 mi NNW 13.8 mph - N/A Snow Light Snow
5:37 PM 32.0 °F 21.2 °F 30.2 °F 93% 29.53 in 0.5 mi NNW 16.1 mph - 0.01 in Snow Snow
5:57 PM 32.0 °F 21.2 °F 30.2 °F 93% 29.53 in 0.5 mi NNW 16.1 mph - 0.01 in Snow Snow
6:16 PM 32.0 °F 21.2 °F 30.2 °F 93% 29.54 in 0.5 mi NNW 16.1 mph - 0.01 in Snow Snow
6:37 PM 32.0 °F 20.1 °F 30.2 °F 93% 29.54 in 0.8 mi NNW 19.6 mph 24.2 mph 0.01 in Snow Light Snow
6:57 PM 32.0 °F 19.8 °F 30.2 °F 93% 29.55 in 1.0 mi NW 20.7 mph - 0.01 in Snow Light Snow
7:16 PM 32.0 °F 20.1 °F 30.2 °F 93% 29.55 in 1.8 mi NW 19.6 mph - N/A Snow Light Snow
7:37 PM 32.0 °F 20.5 °F 30.2 °F 93% 29.55 in 1.5 mi NW 18.4 mph 27.6 mph N/A Snow Light Snow
7:57 PM 32.0 °F 20.5 °F 30.2 °F 93% 29.55 in 1.0 mi NW 18.4 mph 26.5 mph N/A Snow Light Snow
8:16 PM 32.0 °F 21.2 °F 30.2 °F 93% 29.56 in 0.8 mi NW 16.1 mph - N/A Snow Light Snow
8:37 PM 32.0 °F 20.1 °F 30.2 °F 93% 29.56 in 1.2 mi NW 19.6 mph 24.2 mph N/A Snow Light Snow
8:57 PM 32.0 °F 20.5 °F 30.2 °F 93% 29.58 in 0.5 mi NW 18.4 mph - N/A Snow Snow
9:16 PM 32.0 °F 19.8 °F 30.2 °F 93% 29.58 in 0.8 mi NW 20.7 mph - N/A Snow Snow
9:37 PM 32.0 °F 20.1 °F 30.2 °F 93% 29.58 in 0.8 mi NW 19.6 mph 27.6 mph N/A Snow Snow
9:57 PM 32.0 °F 20.1 °F 30.2 °F 93% 29.58 in 1.0 mi NW 19.6 mph 27.6 mph N/A Snow Light Snow
10:37 PM 32.0 °F 19.2 °F 30.2 °F 93% 29.57 in 1.5 mi NW 23.0 mph 29.9 mph N/A Snow Light Snow
10:56 PM 32.0 °F 19.8 °F 30.2 °F 93% 29.57 in 1.2 mi NW 20.7 mph 26.5 mph N/A Snow Light Snow
11:17 PM 32.0 °F 19.8 °F 30.2 °F 93% 29.56 in 1.2 mi NW 20.7 mph 25.3 mph N/A Snow Light Snow
11:36 PM 32.0 °F 20.5 °F 30.2 °F 93% 29.55 in 1.5 mi NW 18.4 mph 26.5 mph N/A Snow Light Snow
11:57 PM 32.0 °F 20.8 °F 30.2 °F 93% 29.55 in 2.5 mi WNW 17.3 mph - N/A Snow Light Snow